Wind_Speed
31 29 29 27 25 21 17 16 14 16 26 32 28 28 31 33 36 40 43 43 44 42 40 41 42 42 41 41 40 36 40 38 27 27 39 35 32 32 27 29 28 28 29 27 26
30 28 29 27 23 16 14 13 13 14 20 26 22 27 29 31 32 36 40 41 44 41 40 38 39 39 39 38 39 41 41 37 36 29 35 28 30 33 32 31 30 32 31 29 29
30 28 28 28 22 19 13 10 12 13 17 26 18 26 28 29 32 35 37 44 43 42 41 41 41 40 41 40 39 41 40 36 34 34 34 32 31 35 36 33 30 33 33 31 30
31 27 25 27 21 18 12 8 9 10 12 18 17 21 25 27 29 30 34 40 42 42 42 41 40 39 37 37 39 38 39 36 34 37 34 37 34 37 37 32 33 34 33 32 31
32 29 23 25 22 18 9 7 9 9 13 15 16 15 22 24 26 29 32 35 38 39 39 37 35 33 32 32 36 38 36 36 35 37 37 38 38 37 37 34 34 36 35 32 30
34 28 20 22 24 17 10 8 7 10 10 12 12 14 19 24 25 28 30 33 36 38 37 36 34 33 34 36 34 41 35 36 37 37 39 41 42 39 39 36 36 38 37 35 32
38 29 17 18 21 19 12 8 8 6 6 7 11 13 17 21 22 25 28 32 35 38 37 35 35 35 38 34 36 34 36 37 38 39 41 42 45 45 39 37 38 39 39 36 35
41 31 21 16 17 19 16 10 7 5 6 6 9 13 15 15 20 24 27 32 35 38 38 40 37 41 37 36 36 36 37 39 39 40 40 44 43 42 40 39 39 40 40 38 35
42 34 24 20 17 16 16 15 7 5 5 4 5 13 15 15 18 21 26 30 35 38 39 39 41 42 39 37 36 37 36 36 36 37 40 44 49 42 40 41 43 42 43 41 38
40 37 29 25 20 13 13 15 12 5 8 8 5 11 16 16 17 19 23 28 32 36 39 42 43 39 40 40 36 30 29 33 33 38 40 42 46 41 40 40 43 45 44 42 39
37 36 33 29 22 13 13 15 13 10 11 10 10 9 16 18 19 20 23 27 31 36 40 42 43 42 36 29 26 32 31 35 39 32 37 40 43 41 43 41 43 43 39 40 41
36 34 33 26 22 14 11 14 14 10 12 12 10 13 14 19 21 22 24 27 31 34 38 43 44 35 32 33 32 31 31 35 34 32 38 40 40 42 41 42 43 48 50 49 47
37 33 31 29 22 17 13 14 15 12 14 13 14 15 13 19 22 23 25 27 29 33 37 37 31 34 36 34 33 31 32 33 30 32 35 37 44 42 40 42 44 46 50 50 50
38 32 28 28 25 20 18 17 17 13 14 16 17 19 15 19 24 26 26 30 32 32 33 38 36 38 35 34 32 34 27 32 34 30 34 38 44 41 42 42 44 47 50 51 53
42 34 27 23 27 24 22 19 17 17 18 18 18 20 20 21 19 26 29 29 32 32 37 36 36 34 34 31 29 26 35 35 32 34 38 41 46 44 43 46 44 47 51 54 54
44 39 28 24 25 26 24 22 21 19 19 18 20 16 17 20 22 27 30 32 33 36 38 39 40 40 39 34 34 37 38 37 36 37 45 40 42 42 45 37 37 45 51 53 54
44 42 35 25 22 26 27 24 22 21 21 19 20 23 23 21 23 22 32 35 35 37 37 37 39 40 39 40 41 42 38 36 37 43 44 34 40 41 43 37 36 39 46 50 51
43 42 39 29 25 22 27 29 23 24 25 24 24 24 24 24 25 25 25 33 39 38 39 39 43 41 40 43 44 39 40 39 39 41 38 37 45 41 32 29 32 36 39 43 46
43 41 40 32 29 22 21 28 30 27 26 25 27 28 27 26 27 27 30 30 34 39 39 41 41 40 42 43 43 41 46 35 39 40 41 42 38 33 29 30 33 33 35 38 42
46 43 38 35 29 27 24 26 31 31 28 27 26 28 28 25 26 31 31 31 29 34 40 42 43 45 43 45 45 45 42 43 41 45 46 42 41 35 26 28 30 32 33 35 36
48 45 42 38 32 30 27 28 28 33 35 31 28 30 30 32 31 28 32 36 32 28 26 27 41 45 47 46 42 47 49 45 44 46 45 42 40 38 32 29 29 30 32 33 35
50 47 44 41 39 32 29 29 28 31 37 37 30 30 31 34 36 38 33 33 34 33 31 34 29 39 47 42 44 50 49 49 49 46 46 42 39 37 34 27 23 27 28 29 32
49 49 47 44 39 38 33 28 31 32 36 39 39 34 33 36 39 38 40 39 38 37 35 29 35 30 34 44 44 49 49 49 49 49 49 47 43 41 40 34 29 25 22 28 30
50 50 48 45 43 39 36 30 32 35 36 39 41 38 37 37 39 40 40 43 42 40 33 37 37 39 36 38 40 44 49 49 49 52 48 46 43 39 38 37 34 33 28 28 31
51 50 51 50 48 43 38 34 32 37 36 39 41 42 40 38 41 41 42 42 41 46 49 43 40 41 44 44 44 36 38 45 48 48 51 44 43 42 39 38 38 35 32 31 29
51 50 51 52 50 47 45 36 35 37 37 38 42 45 44 43 43 45 44 42 43 40 46 51 50 45 44 48 43 47 43 42 39 45 50 47 45 44 42 40 41 40 38 35 34
52 52 52 52 52 49 44 41 38 39 38 40 43 47 48 47 46 47 48 47 47 44 40 47 47 49 49 47 48 52 46 44 43 43 45 50 45 44 43 41 39 36 35 37 38
Wind_Direction
333 334 331 326 316 308 293 279 265 257 244 230 234 237 233 229 230 226 222 224 227 227 229 229 233 234 233 236 241 247 254 252 247 252 233 222 239 242 239 236 233 232 230 229 228
333 333 336 332 333 320 303 283 256 255 253 235 232 231 229 227 227 224 220 221 223 225 226 227 230 231 234 235 236 242 245 246 252 238 250 232 232 241 240 236 225 226 226 226 228
340 330 336 340 330 328 310 287 268 258 282 252 231 225 223 224 220 220 217 219 220 221 222 222 224 225 227 230 233 237 242 242 244 246 238 241 239 239 241 235 225 227 225 225 227
343 335 338 346 338 329 325 300 291 282 285 283 284 224 226 215 222 218 217 219 218 220 224 223 224 227 229 232 233 237 239 239 232 234 236 239 238 241 240 232 222 222 226 227 228
346 344 336 348 352 350 335 327 301 320 300 300 294 235 229 219 215 217 218 219 218 219 222 226 226 226 228 228 230 234 233 236 234 228 230 234 234 238 238 225 219 223 223 227 232
351 349 338 347 355 356 355 344 327 308 327 289 289 227 223 225 214 217 217 217 215 217 219 221 222 222 224 227 228 230 231 232 231 230 226 227 230 233 234 228 220 223 224 226 231
356 355 344 343 353 356 354 339 343 351 336 303 283 240 218 227 221 219 216 218 215 213 215 216 219 224 226 229 232 233 234 232 230 229 227 228 231 229 225 222 219 222 223 226 230
358 358 351 338 339 350 352 335 312 330 340 326 261 231 214 224 221 221 220 219 215 213 213 213 216 222 225 229 232 234 233 232 229 228 230 233 233 232 228 219 218 222 225 228 231
1 359 355 347 330 333 350 340 302 298 281 258 256 236 225 224 228 223 220 218 216 213 214 217 219 222 225 228 232 234 234 235 233 233 232 233 235 232 229 221 215 218 225 227 231
4 360 355 351 339 321 339 352 324 279 248 261 267 231 235 226 231 227 224 222 218 216 215 219 223 226 229 231 236 245 246 243 239 234 233 236 237 233 233 227 219 221 220 226 230
6 1 357 351 352 331 311 333 326 275 261 257 256 259 238 232 227 225 227 224 222 219 219 222 226 229 234 242 242 242 237 242 235 233 239 239 240 236 234 229 223 219 226 230 228
6 2 358 354 355 339 320 321 329 280 267 261 264 268 242 234 228 227 224 227 226 223 223 224 226 229 232 232 234 238 239 241 239 238 238 236 238 238 233 231 225 223 220 225 229
4 3 355 357 346 342 328 321 325 304 269 268 262 256 259 237 234 231 224 224 227 224 226 229 233 229 229 231 233 235 238 245 244 237 239 241 241 238 234 230 226 225 227 226 231
4 1 354 351 350 330 322 320 320 308 280 262 264 263 251 257 238 232 231 226 223 227 225 228 225 224 227 231 231 235 239 242 239 239 242 238 239 238 236 231 228 226 228 230 232
360 2 353 346 342 343 322 311 306 300 291 270 262 264 257 259 248 237 234 230 231 226 227 230 230 229 230 232 238 238 234 236 236 235 240 237 241 240 233 231 227 226 227 229 233
356 357 355 344 341 334 331 317 300 293 287 283 269 273 271 261 251 241 237 231 228 230 231 227 224 226 226 228 230 232 232 231 233 235 239 241 244 242 244 245 239 230 230 233 234
350 352 354 347 340 329 323 319 310 287 285 280 272 263 266 272 249 245 246 243 236 234 232 233 236 233 229 228 231 232 229 233 237 239 246 245 249 248 248 241 242 240 236 237 241
344 347 349 344 338 332 317 316 310 302 290 277 275 270 266 260 249 241 241 246 244 241 238 231 236 234 234 235 237 240 240 240 241 245 253 252 249 257 258 252 242 240 242 241 242
337 343 347 339 334 331 317 312 310 305 295 287 273 271 266 261 253 250 241 236 242 239 246 249 242 237 234 235 236 236 239 241 245 250 253 256 257 258 256 250 250 240 238 238 238
333 336 342 337 331 325 319 314 305 301 298 289 279 270 266 261 255 251 250 240 239 236 242 246 250 248 240 233 231 232 236 236 236 241 246 252 260 263 253 252 244 239 240 240 238
330 330 335 337 331 326 315 310 300 294 292 291 280 274 265 259 256 245 247 242 242 232 235 247 246 247 248 245 243 233 236 236 237 243 247 253 258 264 261 254 250 248 238 235 239
329 327 330 334 329 327 320 308 300 288 287 286 282 277 270 263 254 253 246 238 243 243 250 241 248 245 246 248 246 246 242 241 243 244 249 252 250 256 265 265 257 249 240 232 231
326 325 327 330 329 326 323 309 290 289 283 281 279 276 268 265 262 254 253 247 239 243 238 249 236 240 243 243 244 244 242 242 245 245 245 247 250 247 259 264 264 256 238 233 234
322 322 323 327 328 324 321 312 289 285 282 280 277 274 267 263 262 260 255 252 251 236 234 235 236 236 236 245 248 246 242 243 244 244 246 246 253 255 253 256 260 256 248 232 226
319 321 322 325 327 324 320 310 294 282 281 276 275 273 269 260 257 261 258 255 253 250 245 236 234 235 236 239 239 250 247 241 240 245 245 248 250 251 254 252 254 252 253 252 246
316 319 319 323 325 323 322 312 298 288 279 276 275 272 269 264 258 254 256 256 254 254 251 253 244 236 232 235 236 234 242 243 241 242 244 245 244 248 248 246 248 252 253 251 248
315 316 318 322 324 322 319 310 301 293 285 276 272 272 271 267 262 256 253 253 253 251 252 249 250 248 241 236 236 235 231 236 239 240 237 240 242 244 245 245 246 247 250 251 251
Height
5661 5655 5649 5643 5639 5635 5633 5633 5634 5635 5637 5639 5644 5647 5650 5654 5659 5666 5671 5678 5683 5688 5695 5700 5705 5709 5714 5719 5722 5725 5726 5732 5736 5739 5741 5748 5749 5753 5758 5761 5766 5770 5773 5776 5778
5658 5653 5647 5641 5636 5633 5631 5630 5630 5632 5633 5634 5638 5642 5645 5649 5653 5660 5665 5671 5677 5683 5689 5694 5700 5704 5708 5712 5716 5719 5723 5727 5728 5734 5735 5740 5744 5748 5752 5756 5759 5764 5767 5771 5774
5656 5651 5646 5640 5634 5631 5629 5628 5629 5630 5632 5632 5632 5637 5640 5643 5648 5654 5661 5665 5673 5679 5683 5687 5692 5697 5701 5705 5709 5712 5716 5719 5725 5729 5731 5735 5739 5741 5746 5751 5756 5760 5762 5766 5769
5653 5648 5644 5640 5634 5630 5628 5627 5627 5628 5628 5629 5632 5635 5638 5639 5646 5649 5655 5661 5668 5674 5679 5684 5689 5694 5699 5703 5705 5709 5710 5715 5719 5722 5725 5728 5734 5737 5741 5747 5751 5754 5758 5762 5764
5650 5645 5642 5639 5635 5631 5628 5627 5627 5626 5627 5628 5630 5632 5635 5638 5641 5645 5651 5656 5663 5668 5675 5680 5685 5689 5692 5696 5698 5699 5705 5710 5711 5716 5718 5721 5725 5731 5735 5739 5745 5749 5753 5757 5760
5649 5643 5640 5639 5635 5632 5629 5628 5627 5627 5626 5627 5628 5629 5633 5638 5640 5643 5647 5652 5659 5664 5670 5675 5681 5683 5685 5687 5691 5691 5699 5700 5706 5708 5712 5714 5717 5724 5729 5734 5739 5743 5748 5752 5756
5650 5644 5640 5638 5636 5633 5631 5629 5627 5627 5626 5625 5626 5628 5632 5635 5637 5640 5643 5647 5653 5659 5665 5669 5674 5677 5678 5683 5685 5689 5692 5694 5697 5702 5705 5708 5710 5715 5722 5728 5732 5737 5743 5747 5750
5652 5645 5640 5637 5635 5633 5631 5629 5628 5627 5625 5625 5625 5627 5629 5633 5635 5638 5641 5644 5648 5654 5658 5661 5667 5668 5674 5678 5681 5684 5687 5689 5692 5695 5698 5702 5707 5711 5716 5722 5727 5732 5736 5741 5744
5654 5647 5641 5637 5634 5632 5630 5629 5627 5626 5626 5625 5626 5627 5629 5631 5633 5636 5639 5641 5645 5649 5653 5658 5661 5664 5669 5672 5675 5677 5681 5685 5690 5693 5695 5698 5698 5704 5710 5716 5720 5726 5730 5735 5739
5655 5648 5642 5638 5633 5631 5630 5628 5625 5625 5625 5624 5624 5627 5627 5629 5631 5633 5634 5637 5641 5645 5648 5651 5655 5661 5664 5666 5671 5677 5680 5681 5683 5686 5688 5691 5693 5700 5705 5712 5715 5719 5723 5729 5732
5657 5650 5643 5637 5632 5630 5629 5627 5628 5626 5623 5623 5624 5623 5623 5626 5627 5629 5631 5633 5636 5639 5643 5647 5650 5653 5662 5669 5671 5669 5672 5672 5672 5681 5681 5684 5685 5692 5697 5701 5708 5712 5718 5722 5725
5657 5651 5644 5638 5634 5630 5628 5627 5626 5626 5625 5623 5621 5621 5620 5622 5624 5626 5628 5631 5632 5636 5640 5641 5642 5654 5658 5659 5662 5663 5666 5666 5668 5674 5674 5676 5678 5682 5687 5694 5700 5704 5709 5713 5717
5655 5650 5644 5639 5634 5631 5628 5627 5625 5623 5622 5621 5620 5619 5619 5620 5621 5623 5625 5626 5629 5631 5634 5638 5648 5649 5650 5653 5655 5658 5660 5661 5665 5666 5667 5670 5670 5675 5680 5685 5691 5696 5701 5704 5709
5653 5649 5644 5639 5634 5630 5628 5625 5622 5620 5619 5619 5617 5617 5617 5616 5616 5618 5620 5622 5623 5627 5630 5631 5637 5639 5642 5646 5650 5651 5657 5655 5656 5660 5660 5661 5661 5665 5671 5676 5680 5686 5691 5696 5700
5652 5647 5642 5637 5632 5628 5625 5622 5620 5617 5616 5616 5615 5614 5614 5613 5614 5614 5614 5616 5619 5622 5623 5628 5632 5636 5637 5643 5646 5650 5645 5647 5650 5651 5650 5653 5652 5657 5660 5664 5672 5678 5683 5687 5691
5648 5644 5640 5635 5630 5626 5621 5617 5616 5615 5612 5611 5610 5610 5609 5608 5609 5608 5609 5610 5613 5614 5616 5620 5622 5625 5629 5635 5636 5635 5639 5641 5643 5644 5639 5645 5648 5652 5652 5664 5669 5671 5675 5678 5683
5646 5640 5637 5632 5628 5622 5618 5615 5613 5609 5607 5607 5604 5603 5603 5603 5604 5604 5604 5604 5606 5608 5610 5615 5616 5620 5624 5626 5627 5628 5632 5634 5636 5634 5634 5644 5641 5645 5645 5654 5659 5664 5667 5671 5675
5643 5636 5632 5628 5624 5619 5614 5611 5608 5604 5601 5600 5599 5598 5598 5598 5598 5598 5598 5598 5600 5601 5603 5604 5606 5610 5617 5618 5620 5625 5628 5630 5629 5629 5632 5636 5628 5634 5644 5649 5651 5654 5658 5663 5667
5640 5633 5627 5623 5619 5615 5611 5606 5603 5600 5598 5594 5593 5591 5591 5591 5591 5590 5591 5591 5593 5596 5596 5597 5598 5602 5605 5611 5613 5617 5613 5626 5626 5626 5624 5624 5626 5630 5635 5640 5642 5646 5648 5652 5656
5635 5628 5621 5617 5613 5609 5605 5600 5595 5593 5591 5588 5586 5585 5584 5583 5583 5582 5582 5585 5585 5587 5589 5590 5591 5593 5596 5599 5602 5604 5611 5612 5613 5612 5613 5618 5620 5621 5629 5632 5634 5637 5641 5644 5647
5628 5622 5614 5609 5605 5601 5597 5592 5588 5584 5581 5580 5578 5575 5576 5575 5575 5574 5573 5576 5577 5579 5580 5580 5581 5584 5583 5588 5595 5596 5596 5601 5604 5605 5608 5612 5614 5616 5620 5623 5627 5630 5632 5636 5640
5621 5616 5608 5601 5597 5591 5587 5583 5580 5576 5572 5569 5569 5567 5565 5563 5564 5563 5565 5566 5566 5567 5569 5572 5570 5570 5575 5578 5581 5583 5588 5591 5593 5599 5600 5606 5609 5608 5611 5616 5620 5623 5626 5628 5631
5612 5607 5599 5593 5587 5581 5577 5572 5568 5565 5561 5558 5557 5557 5554 5554 5551 5552 5553 5556 5556 5557 5560 5560 5560 5562 5563 5566 5568 5571 5577 5581 5585 5588 5589 5593 5598 5605 5605 5609 5613 5615 5618 5621 5624
5603 5597 5591 5583 5578 5572 5566 5562 5556 5554 5551 5547 5545 5544 5543 5543 5540 5539 5542 5542 5543 5545 5546 5546 5547 5550 5554 5557 5558 5560 5565 5570 5573 5575 5582 5583 5590 5594 5598 5601 5604 5607 5610 5613 5616
5594 5588 5581 5574 5568 5561 5556 5551 5546 5541 5540 5536 5533 5531 5529 5529 5528 5528 5527 5528 5531 5531 5532 5533 5535 5537 5541 5544 5547 5550 5553 5557 5559 5567 5568 5578 5580 5584 5588 5591 5593 5597 5601 5604 5607
5584 5578 5570 5563 5556 5550 5544 5540 5535 5528 5526 5523 5520 5517 5516 5516 5514 5515 5514 5516 5516 5519 5518 5518 5521 5524 5527 5530 5534 5537 5542 5545 5550 5555 5558 5562 5568 5571 5576 5580 5583 5587 5591 5594 5597
5571 5566 5558 5553 5544 5537 5532 5525 5521 5516 5513 5510 5506 5502 5500 5499 5498 5499 5500 5502 5503 5505 5506 5507 5508 5511 5514 5517 5520 5523 5532 5535 5539 5543 5547 5549 5558 5562 5566 5570 5573 5577 5580 5584 5587